Evansville, IN

9:59 PM CDT on April 26, 2017 (GMT -0500)
Evansville Regional

Weather History for KEVV - June, 2014

Change the Weather History Date:

Monday, June 23, 2014

  Actual Average Record
Temperature  
Mean Temperature 83 °F 77 °F  
Max Temperature 94 °F 88 °F 100 °F (1988)
Min Temperature 71 °F 66 °F 45 °F (1972)
Degree Days  
Heating Degree Days 0 0  
Month to date heating degree days 0 4  
Since 1 June heating degree days 0 4  
Since 1 July heating degree days 4980 4545  
Cooling Degree Days 18 12  
Month to date cooling degree days 263 212  
Year to date cooling degree days 474 347  
Since 1 June cooling degree days 263 212  
Growing Degree Days 32 (Base 50)    
Moisture  
Dew Point 68 °F    
Average Humidity 69    
Maximum Humidity 93    
Minimum Humidity 44    
Precipitation  
Precipitation 0.44 in 0.11 in 3.01 in (1960)
Month to date precipitation 3.00 3.01  
Year to date precipitation 24.49 23.25  
Snow  
Snow 0.00 in 0.00 in - ()
Month to date snowfall 0.0 0.0  
Since 1 June snowfall 0.0 0.0  
Since 1 July snowfall 12.6 11.8  
Snow Depth 0.00 in    
Sea Level Pressure  
Sea Level Pressure 29.89 in    
Wind  
Wind Speed 6 mph (SSW)    
Max Wind Speed 47 mph    
Max Gust Speed 56 mph    
Visibility 8 miles    
Events Rain , Thunderstorm    
T = Trace of Precipitation, MM = Missing Value Source: NWS Daily Summary

Daily Weather History Graph

Daily Weather History Graph

Search for Another Location

Airport or City:

Trip Planner

Search our weather history database for the weather conditions in past years. The results will help you decide how hot, cold, wet, or windy it might be!

Date:

Astronomy

Jun. 23, 2014 Rise Set
Actual Time 5:28 AM CDT 8:16 PM CDT
Civil Twilight 4:56 AM CDT 8:48 PM CDT
Nautical Twilight 4:17 AM CDT 9:27 PM CDT
Astronomical Twilight 3:32 AM CDT 10:12 PM CDT
Moon 2:51 AM CDT (6/23) 4:59 PM CDT (6/23)
Length of Visible Light 15h 51m
Length of Day
14h 48m
Waning Crescent, 13% of the Moon is Illuminated
Jun 23
Waning Crescent
Jun 27
New
Jul 5
First Quarter
Jul 12
Full
Jul 18
Last Quarter

Hourly Weather History & Observations

Time (CDT) Temp. Heat Index Dew Point Humidity Pressure Visibility Wind Dir Wind Speed Gust Speed Precip Events Conditions
12:54 AM 75.0 °F - 69.1 °F 82% 29.86 in 10.0 mi Calm Calm - N/A   Clear
1:54 AM 73.9 °F - 69.1 °F 85% 29.86 in 10.0 mi Calm Calm - N/A   Clear
2:54 AM 75.0 °F - 69.1 °F 82% 29.86 in 10.0 mi Calm Calm - N/A   Clear
3:54 AM 73.4 °F - 68.0 °F 83% 29.88 in 10.0 mi Calm Calm - N/A   Clear
4:54 AM 73.0 °F - 69.1 °F 87% 29.87 in 10.0 mi Calm Calm - N/A   Clear
5:54 AM 71.1 °F - 69.1 °F 93% 29.90 in 10.0 mi East 3.5 mph - N/A   Scattered Clouds
6:54 AM 75.9 °F - 69.1 °F 79% 29.90 in 10.0 mi Calm Calm - N/A   Mostly Cloudy
7:54 AM 80.1 °F 83.2 °F 70.0 °F 71% 29.90 in 9.0 mi South 5.8 mph - N/A   Clear
8:54 AM 82.9 °F 87.0 °F 70.0 °F 65% 29.90 in 10.0 mi South 5.8 mph - N/A   Clear
9:54 AM 86.0 °F 90.7 °F 70.0 °F 59% 29.90 in 10.0 mi SW 10.4 mph - N/A   Partly Cloudy
10:54 AM 89.1 °F 94.1 °F 70.0 °F 53% 29.91 in 9.0 mi SSW 9.2 mph - N/A   Partly Cloudy
11:54 AM 90.0 °F 93.6 °F 68.0 °F 48% 29.91 in 10.0 mi SW 13.8 mph 19.6 mph N/A   Scattered Clouds
12:54 PM 93.0 °F 97.4 °F 68.0 °F 44% 29.88 in 10.0 mi SSW 13.8 mph 20.7 mph N/A   Scattered Clouds
1:01 PM 91.9 °F 96.9 °F 69.1 °F 47% 29.89 in 3.0 mi SSW 9.2 mph 19.6 mph N/A   Haze
1:08 PM 91.9 °F 95.9 °F 68.0 °F 45% 29.88 in 2.0 mi SSW 13.8 mph 20.7 mph N/A   Haze
1:16 PM 91.0 °F 94.3 °F 66.9 °F 45% 29.88 in 10.0 mi SW 11.5 mph - N/A   Mostly Cloudy
1:54 PM 91.9 °F 95.9 °F 68.0 °F 45% 29.88 in 8.0 mi SSW 15.0 mph 19.6 mph N/A   Mostly Cloudy
2:32 PM 91.0 °F 94.3 °F 66.9 °F 45% 29.89 in 1.2 mi SSW 28.8 mph 38.0 mph N/A   Haze
2:34 PM 88.0 °F 90.3 °F 66.0 °F 48% 29.90 in 1.0 mi SW 32.2 mph 38.0 mph N/A Thunderstorm Unknown
2:36 PM 86.0 °F 87.6 °F 64.9 °F 49% 29.91 in 0.8 mi SW 33.4 mph 39.1 mph N/A Thunderstorm Unknown
2:50 PM 73.4 °F - 66.2 °F 78% 29.91 in 0.2 mi West 15.0 mph 56.4 mph N/A Rain , Thunderstorm Heavy Thunderstorms and Rain
2:54 PM 73.0 °F - 66.0 °F 79% 29.89 in 0.2 mi WNW 10.4 mph 55.2 mph 0.38 in Rain , Thunderstorm Heavy Thunderstorms and Rain
2:58 PM 73.0 °F - 66.0 °F 79% 29.90 in 1.2 mi West 6.9 mph - 0.03 in Rain , Thunderstorm Heavy Thunderstorms and Rain
3:00 PM 73.0 °F - 66.0 °F 79% 29.90 in 2.0 mi West 8.1 mph - 0.05 in Rain , Thunderstorm Heavy Thunderstorms and Rain
3:03 PM 73.0 °F - 66.0 °F 79% 29.89 in 3.0 mi West 10.4 mph - 0.06 in Rain , Thunderstorm Thunderstorms and Rain
3:21 PM 73.9 °F - 66.9 °F 79% 29.88 in 10.0 mi West 5.8 mph - 0.06 in Rain Light Rain
3:54 PM 75.2 °F - 69.8 °F 83% 29.88 in 10.0 mi SSW 6.9 mph - N/A Rain Light Rain
4:54 PM 78.8 °F - 69.8 °F 74% 29.91 in 10.0 mi SE 4.6 mph - N/A   Clear
5:54 PM 79.0 °F - 68.0 °F 69% 29.87 in 10.0 mi SSE 13.8 mph 18.4 mph N/A   Clear
6:54 PM 78.1 °F - 68.0 °F 71% 29.88 in 10.0 mi SSE 8.1 mph - N/A   Clear
7:54 PM 78.1 °F - 68.0 °F 71% 29.90 in 10.0 mi South 6.9 mph - N/A   Clear
8:54 PM 75.9 °F - 69.1 °F 79% 29.90 in 10.0 mi SSE 4.6 mph - N/A   Partly Cloudy
9:54 PM 75.9 °F - 69.1 °F 79% 29.90 in 10.0 mi SE 6.9 mph - N/A   Clear
10:54 PM 75.0 °F - 69.1 °F 82% 29.91 in 10.0 mi SSE 4.6 mph - N/A   Clear
11:54 PM 73.9 °F - 69.1 °F 85% 29.91 in 10.0 mi SSE 4.6 mph - N/A   Clear